Regional Weather Roundup
Issued by NWS New Orleans/Baton Rouge, LA

Home | Current Version | Previous Version | Text Only | Print | Product List | Glossary On
Versions: 1 2 3 4 5 6 7 8 9 10 11 12 13 14 15 16 17 18 19 20 21 22 23 24 25 26 27 28 29 30 31 32 33 34 35 36 37 38 39 40 41 42 43 44 45 46 47 48 49 50
000
ASUS44 KLIX 290511
RWRLIX
NEW ORLEANS REGIONAL WEATHER ROUNDUP
NATIONAL WEATHER SERVICE NEW ORLEANS LA
1200 AM CDT FRI MAY 29 2015

NOTE: "FAIR" INDICATES FEW OR NO CLOUDS BELOW 12,000 FEET WITH NO
      SIGNIFICANT WEATHER AND/OR OBSTRUCTIONS TO VISIBILITY.
      SKY/WX - SKY CONDITION AND SIGNIFICANT WEATHER.
      TMP - AIR TEMPERATURE.     DP    - DEWPOINT TEMPERATURE.
      RH  - RELATIVE HUMIDITY.   PRES  - PRESSURE.
      HI  - HEAT INDEX.          WCI   - WIND CHILL INDEX.

*  THESE STATIONS ARE NOT NWS OR FAA STATIONS AND ARE NOT UNDER
   NWS QUALITY CONTROL.

LAZ038-040-048-061>063-065>067-069-290600-
SOUTHEAST LOUISIANA

CITY           SKY/WX    TMP DP  RH WIND       PRES   REMARKS
N.O. AUDUBON   NOT AVBL
N.O. INTL ARPT PTCLDY    77  71  82 SE9       30.05F
N.O. LAKEFRONT CLEAR     80  71  74 SE8       30.06F
SLIDELL        CLEAR     76  74  93 SE5       30.06F
BATON ROUGE    CLEAR     78  71  79 SE6       30.04S
BOOTHVILLE     CLEAR     75  72  90 SE3       30.08F
BELLE CHASSE   CLEAR     77  70  79 SE9       30.05F
BOGALUSA*        N/A     74  70  87 SE5       30.08F
GALLIANO*      CLEAR     77  72  84 CALM      30.06F
NEW ROADS*       N/A     76  70  81 SE6       30.03R
GONZALES*        N/A     77  74  89 S5        30.04S
HAMMOND*       CLEAR     75  72  88 SE5       30.06F
HOUMA*         CLEAR     75  73  93 SE3       30.05F
PORT FOURCHON* CLEAR     81  73  78 SE12G18   30.06F

$$

MSZ070-080>082-290600-
SOUTHERN MISSISSIPPI

CITY           SKY/WX    TMP DP  RH WIND       PRES   REMARKS
MCCOMB         CLEAR     73  72  96 SE8       30.05F
GULFPORT       CLEAR     78  71  79 SE13      30.07F
BILOXI         CLEAR     78  71  78 SE6       30.08F
PASCAGOULA     CLEAR     71  70  96 E3        30.09F

$$

COASTAL OBSERVATIONS
LAKE AND NEARSHORE STATIONS

STATION/POSITION TIME  TEMP    WIND        PRES    WAVE
                       AIR SEA DIR/SP/G            HT/PER
                 (UTC) (F)     (DEG/KT/KT) (MB)    (FT/S)
PASCAGOULA       0400   79     120/  8/  9 1018.8
WAVELAND YACHT   0400   79 81  140/ 12/ 14 1018.9
GRAND ISLE       0400   80 84  140/  7/ 12 1018.4
SOUTHWEST PASS   0400   79 75  140/ 14/ 16 1019.2
NEW CANAL        0400   79 83  150/  4/  7 1017.4
SHELL BEACH      0400   77 82  130/  8/ 10 1018.0

OFFSHORE STATIONS

STATION/POSITION TIME  TEMP    WIND        PRES    WAVE
                       AIR SEA DIR/SP/G            HT/PER
                 (UTC) (F)     (DEG/KT/KT) (MB)    (FT/S)
64 S DAUPHIN ISL 0450   78 80  130/ 14/ 16 1018.8    2/ 6

$$



USA.gov is the U.S. government's official web portal to all federal, state and local government web resources and services.